Regional Weather Roundup
Issued by NWS

Home | Current Version | Previous Version | Graphics & Text | Print | Product List | Glossary On
Versions: 1 2 3 4 5 6 7 8 9 10 11 12 13 14 15 16 17 18 19 20 21 22 23 24 25 26 27 28 29 30 31 32 33 34 35 36 37 38 39 40 41 42 43 44 45 46 47 48 49 50
000
ASUS43 KFSD 201310
RWRSD

WEATHER ROUNDUP FOR SOUTH DAKOTA
NATIONAL WEATHER SERVICE SIOUX FALLS SD
800 AM CDT WED SEP 20 2017

NOTE: "FAIR" INDICATES FEW OR NO CLOUDS BELOW 12,000 FEET WITH NO
SIGNIFICANT WEATHER AND/OR OBSTRUCTIONS TO VISIBILITY.


SDZ001>005-009-010-012>017-201400-
NORTHWEST AND NORTH CENTRAL SOUTH DAKOTA

CITY           SKY/WX    TMP DP  RH WIND       PRES   REMARKS
BUFFALO          N/A     41  37  86 W9        29.68S
MOBRIDGE       CLEAR     42  40  92 S5        29.76R
$$

SDZ012>016-024>037-041>051-057-063-072>074-201400-
SOUTHWEST AND SOUTH CENTRAL SOUTH DAKOTA

CITY           SKY/WX    TMP DP  RH WIND       PRES   REMARKS
RAPID CTY ARPT CLEAR     36  30  80 NE5       29.80R
PIERRE         PTCLDY    45  41  86 SW6       29.81R
CUSTER         CLEAR     38  25  59 W6        29.84S
ELLSWORTH AFB  CLEAR     43  32  65 CALM      29.79R
PHILIP         CLEAR     38  38 100 E5        29.83R
SPEARFISH      FAIR      46  30  53 SW12G18   29.80R
WINNER         FAIR      49  45  86 SW6       29.85R
$$

SDZ004>011-016>023-039-040-201400-
NORTHEAST SOUTH DAKOTA

CITY           SKY/WX    TMP DP  RH WIND       PRES   REMARKS
ABERDEEN       CLEAR     46  44  93 SW7       29.77R
WATERTOWN      MOCLDY    52  49  89 W14G25    29.75R
BROOKINGS      CLEAR     52  49  89 W9        29.77R
SISSETON         N/A     54  47  77 W18       29.69R
$$

SDZ017-020-022-023-036>040-048>070-201400-
SOUTHEAST SOUTH DAKOTA

CITY           SKY/WX    TMP DP  RH WIND       PRES   REMARKS
SIOUX FALLS    PTCLDY    55  52  89 NW12      29.78R
HURON          MOCLDY    51  47  86 W9        29.80R
CHAMBERLAIN    CLOUDY    49  49  99 SW5       29.84R
MITCHELL       CLEAR     52  49  89 W10       29.81R
YANKTON        CLEAR     53  50  89 NW10      29.81R
$$

ABBREVIATIONS USED IN REMARKS
   TC - TEMPERATURE IN CELSIUS
  WCI - WIND CHILL INDEX
   HX - HEAT INDEX
  VSB - VISIBILITY




USA.gov is the U.S. government's official web portal to all federal, state and local government web resources and services.